Gainesville, TX

9:13 PM CST on November 23, 2017 (GMT -0600)
Gainesville Municipal

Weather History for KGLE - September, 2013

Change the Weather History Date:

Sunday, September 1, 2013

  Actual Average (KDTO) Record (KDTO)
Temperature  
Mean Temperature 89 °F -  
Max Temperature 105 °F 91 °F 108 °F (2000)
Min Temperature 73 °F 68 °F 62 °F (2017)
Cooling Degree Days 24    
Growing Degree Days 39 (Base 50)    
Moisture  
Dew Point 62 °F    
Average Humidity 45    
Maximum Humidity 73    
Minimum Humidity 22    
Precipitation  
Precipitation 0.00 in - - ()
Sea Level Pressure  
Sea Level Pressure 29.86 in    
Wind  
Wind Speed 3 mph (SSE)    
Max Wind Speed 10 mph    
Max Gust Speed 20 mph    
Visibility 10 miles    
Events      
Averages and records for this station are not official NWS values.
T = Trace of Precipitation, MM = Missing Value Source: NWS Daily Summary

Daily Weather History Graph

Daily Weather History Graph

Search for Another Location

Airport or City:

Trip Planner

Search our weather history database for the weather conditions in past years. The results will help you decide how hot, cold, wet, or windy it might be!

Date:

Astronomy

Sep. 01, 2013 Rise Set
Actual Time 7:02 AM CDT 7:53 PM CDT
Civil Twilight 6:37 AM CDT 8:19 PM CDT
Nautical Twilight 6:07 AM CDT 8:49 PM CDT
Astronomical Twilight 5:36 AM CDT 9:19 PM CDT
Moon 3:32 AM CDT (9/1) 5:26 PM CDT (9/1)
Length of Visible Light 13h 41m
Length of Day
12h 50m
Waning Crescent, 13% of the Moon is Illuminated
Sep 1
Waning Crescent
Sep 5
New
Sep 12
First Quarter
Sep 19
Full
Sep 26
Last Quarter

Hourly Weather History & Observations

Time (CDT) Temp. Heat Index Dew Point Humidity Pressure Visibility Wind Dir Wind Speed Gust Speed Precip Events Conditions
12:15 AM 83.3 °F 83.7 °F 61.2 °F 47% 29.84 in 10.0 mi Calm Calm - N/A   Clear
12:35 AM 81.0 °F 81.7 °F 60.8 °F 50% 29.84 in 10.0 mi Calm Calm - N/A   Clear
12:55 AM 80.2 °F 81.2 °F 61.2 °F 52% 29.84 in 10.0 mi Calm Calm - N/A   Clear
1:15 AM 79.7 °F - 61.9 °F 54% 29.84 in 10.0 mi Calm Calm - N/A   Clear
1:35 AM 79.7 °F - 63.7 °F 58% 29.85 in 10.0 mi Calm Calm - N/A   Clear
1:55 AM 78.3 °F - 63.7 °F 61% 29.85 in 10.0 mi South 3.5 mph - N/A   Clear
2:15 AM 79.0 °F - 63.5 °F 59% 29.85 in 10.0 mi Calm Calm - N/A   Clear
2:35 AM 78.3 °F - 63.5 °F 60% 29.85 in 10.0 mi South 4.6 mph - N/A   Clear
2:55 AM 77.0 °F - 63.7 °F 63% 29.85 in 10.0 mi SSE 4.6 mph - N/A   Clear
3:15 AM 77.0 °F - 63.7 °F 63% 29.85 in 10.0 mi South 3.5 mph - N/A   Clear
3:35 AM 75.7 °F - 63.0 °F 64% 29.85 in 10.0 mi Calm Calm - N/A   Clear
3:55 AM 76.8 °F - 63.0 °F 62% 29.85 in 10.0 mi SSE 3.5 mph - N/A   Clear
4:15 AM 75.7 °F - 63.0 °F 64% 29.85 in 10.0 mi SSE 3.5 mph - N/A   Clear
4:35 AM 75.7 °F - 63.1 °F 65% 29.85 in 10.0 mi SSE 4.6 mph - N/A   Clear
4:55 AM 73.4 °F - 62.6 °F 69% 29.85 in 10.0 mi SSE 3.5 mph - N/A   Clear
5:15 AM 74.3 °F - 62.6 °F 67% 29.85 in 10.0 mi SE 3.5 mph - N/A   Clear
5:35 AM 73.6 °F - 62.2 °F 68% 29.85 in 10.0 mi Calm Calm - N/A   Clear
5:55 AM 75.7 °F - 63.5 °F 66% 29.85 in 10.0 mi Calm Calm - N/A   Clear
6:15 AM 73.4 °F - 62.4 °F 68% 29.85 in 10.0 mi SSE 3.5 mph - N/A   Clear
6:35 AM 73.4 °F - 63.7 °F 71% 29.86 in 10.0 mi SSE 3.5 mph - N/A   Clear
6:55 AM 73.4 °F - 63.7 °F 71% 29.86 in 10.0 mi Calm Calm - N/A   Clear
7:15 AM 73.4 °F - 63.5 °F 71% 29.87 in 10.0 mi Calm Calm - N/A   Clear
7:35 AM 73.4 °F - 62.8 °F 69% 29.87 in 10.0 mi Calm Calm - N/A   Clear
7:55 AM 73.4 °F - 64.2 °F 73% 29.88 in 10.0 mi Calm Calm - N/A   Clear
8:15 AM 75.7 °F - 64.6 °F 68% 29.88 in 10.0 mi SE 3.5 mph - N/A   Clear
8:35 AM 77.0 °F - 64.2 °F 65% 29.89 in 10.0 mi SSE 3.5 mph - N/A   Clear
8:55 AM 80.1 °F 81.8 °F 64.6 °F 59% 29.89 in 10.0 mi SSE 3.5 mph - N/A   Clear
9:15 AM 84.4 °F 86.8 °F 66.6 °F 55% 29.90 in 10.0 mi South 4.6 mph - N/A   Clear
9:35 AM 86.0 °F 88.2 °F 66.2 °F 51% 29.90 in 10.0 mi SSE 5.8 mph - N/A   Clear
9:55 AM 88.3 °F 90.5 °F 65.8 °F 47% 29.90 in 10.0 mi South 4.6 mph - N/A   Clear
10:15 AM 90.9 °F 93.1 °F 65.5 °F 43% 29.90 in 10.0 mi South 5.8 mph - N/A   Clear
10:35 AM 91.9 °F 94.1 °F 64.9 °F 41% 29.90 in 10.0 mi SW 5.8 mph - N/A   Clear
10:55 AM 93.4 °F 95.2 °F 64.4 °F 38% 29.90 in 10.0 mi South 3.5 mph - N/A   Clear
11:15 AM 95.5 °F 97.4 °F 63.7 °F 35% 29.90 in 10.0 mi West 3.5 mph - N/A   Clear
11:35 AM 95.9 °F 96.1 °F 60.4 °F 31% 29.90 in 10.0 mi Calm Calm - N/A   Clear
11:55 AM 97.2 °F 97.6 °F 60.6 °F 30% 29.89 in 10.0 mi Calm Calm - N/A   Clear
12:15 PM 97.9 °F 97.8 °F 60.1 °F 28% 29.89 in 10.0 mi Calm Calm - N/A   Clear
12:35 PM 99.1 °F 98.8 °F 58.5 °F 26% 29.88 in 10.0 mi SW 6.9 mph - N/A   Clear
12:55 PM 99.1 °F 98.4 °F 57.6 °F 25% 29.87 in 10.0 mi East 3.5 mph - N/A   Clear
1:15 PM 100.0 °F 99.7 °F 57.9 °F 25% 29.87 in 10.0 mi WNW 5.8 mph - N/A   Clear
1:35 PM 102.6 °F 103.0 °F 59.4 °F 24% 29.87 in 10.0 mi NW 5.8 mph - N/A   Clear
1:55 PM 102.6 °F 103.0 °F 58.8 °F 24% 29.86 in 10.0 mi Calm Calm - N/A   Scattered Clouds
2:15 PM 103.3 °F 103.5 °F 58.6 °F 23% 29.85 in 10.0 mi NNE 3.5 mph - N/A   Mostly Cloudy
2:35 PM 99.1 °F 97.9 °F 56.5 °F 24% 29.85 in 10.0 mi Calm Calm - N/A   Scattered Clouds
2:55 PM 105.1 °F 105.7 °F 59.2 °F 22% 29.84 in 10.0 mi SSE 4.6 mph - N/A   Clear
3:15 PM 103.3 °F 103.0 °F 57.4 °F 22% 29.82 in 10.0 mi Calm Calm - N/A   Clear
3:35 PM 99.9 °F 98.5 °F 55.4 °F 23% 29.82 in 10.0 mi West 6.9 mph - N/A   Clear
3:55 PM 100.9 °F 100.0 °F 56.5 °F 23% 29.81 in 10.0 mi South 4.6 mph - N/A   Clear
4:15 PM 99.7 °F 99.2 °F 58.1 °F 25% 29.80 in 10.0 mi ESE 8.1 mph - N/A   Scattered Clouds
4:35 PM 100.2 °F 100.0 °F 57.9 °F 25% 29.80 in 10.0 mi ESE 10.4 mph - N/A   Scattered Clouds
4:55 PM 98.6 °F 98.5 °F 59.5 °F 27% 29.80 in 10.0 mi ESE 10.4 mph - N/A   Clear
5:15 PM 97.0 °F 96.5 °F 59.2 °F 28% 29.80 in 10.0 mi East 6.9 mph - N/A   Clear
5:35 PM 96.4 °F 96.1 °F 59.0 °F 29% 29.80 in 10.0 mi East 5.8 mph - N/A   Clear
5:55 PM 97.2 °F 96.4 °F 57.9 °F 27% 29.80 in 10.0 mi ENE 3.5 mph - N/A   Clear
6:15 PM 93.4 °F 92.2 °F 57.6 °F 30% 29.81 in 10.0 mi West 9.2 mph 19.6 mph N/A   Clear
6:35 PM 93.4 °F 91.8 °F 56.7 °F 29% 29.82 in 10.0 mi West 4.6 mph - N/A   Clear
6:55 PM 93.4 °F 92.5 °F 58.3 °F 31% 29.82 in 10.0 mi West 3.5 mph - N/A   Clear
7:15 PM 93.4 °F 92.5 °F 58.8 °F 31% 29.82 in 10.0 mi Calm Calm - N/A   Clear
7:35 PM 93.4 °F 92.2 °F 57.9 °F 30% 29.82 in 10.0 mi Calm Calm - N/A   Clear
7:55 PM 90.9 °F 90.3 °F 59.4 °F 35% 29.83 in 10.0 mi Calm Calm - N/A   Clear
8:15 PM 90.9 °F 90.6 °F 60.6 °F 36% 29.84 in 10.0 mi NNW 5.8 mph - N/A   Scattered Clouds
8:35 PM 90.9 °F 90.3 °F 59.7 °F 35% 29.85 in 10.0 mi NNE 4.6 mph - N/A   Scattered Clouds
8:55 PM 90.9 °F 91.3 °F 62.1 °F 38% 29.85 in 10.0 mi NNE 3.5 mph - N/A   Mostly Cloudy
9:15 PM 90.9 °F 91.6 °F 62.4 °F 39% 29.87 in 10.0 mi East 4.6 mph - N/A   Scattered Clouds
9:35 PM 90.7 °F 91.3 °F 62.6 °F 39% 29.88 in 10.0 mi ENE 3.5 mph - N/A   Clear
9:55 PM 86.0 °F 86.6 °F 62.2 °F 45% 29.88 in 10.0 mi SE 5.8 mph - N/A   Clear
10:15 PM 86.0 °F 87.1 °F 63.5 °F 47% 29.88 in 10.0 mi ESE 8.1 mph - N/A   Clear
10:35 PM 86.0 °F 87.1 °F 63.9 °F 47% 29.89 in 10.0 mi ESE 8.1 mph - N/A   Clear
10:55 PM 86.0 °F 87.9 °F 65.1 °F 50% 29.88 in 10.0 mi ESE 5.8 mph - N/A   Clear
11:15 PM 86.0 °F 88.2 °F 66.2 °F 51% 29.88 in 10.0 mi SE 4.6 mph - N/A   Clear
11:35 PM 86.0 °F 88.8 °F 67.1 °F 53% 29.89 in 10.0 mi South 6.9 mph - N/A   Clear
11:55 PM 83.7 °F 85.5 °F 65.7 °F 54% 29.89 in 10.0 mi South 4.6 mph - N/A   Clear